Weather History for North Adams, MA

Change the Weather History Date:

Monday, November 19, 2012

  Actual Average Record
Temperature  
Mean Temperature 34 °F -  
Max Temperature 50 °F 44 °F 64 °F (2003)
Min Temperature 19 °F 28 °F 9 °F (1997)
Degree Days  
Heating Degree Days 30    
Moisture  
Dew Point 18 °F    
Average Humidity 68    
Maximum Humidity 89    
Minimum Humidity 19    
Precipitation  
Precipitation 0.00 in - - ()
Sea Level Pressure  
Sea Level Pressure 30.46 in    
Wind  
Wind Speed 0 mph (SSE)    
Max Wind Speed 5 mph    
Max Gust Speed -    
Visibility 9 miles    
Events      
Averages and records for this station are not official NWS values.
T = Trace of Precipitation, MM = Missing Value Source: NWS Daily Summary

Daily Weather History Graph

Daily Weather History Graph

Search for Another Location

Airport:

Trip Planner

Search our weather history database for the weather conditions in past years. The results will help you decide how hot, cold, wet, or windy it might be!

Date:

Astronomy

Nov. 19, 2012 Rise Set
Actual Time 6:49 AM EST 4:26 PM EST
Civil Twilight 6:19 AM EST 4:56 PM EST
Nautical Twilight 5:44 AM EST 5:31 PM EST
Astronomical Twilight 5:11 AM EST 6:04 PM EST
Moon 11:48 AM EST (11/19) 10:53 PM EST (11/19)
Length of Visible Light 10h 37m
Length of Day
9h 36m
Waxing Crescent, 40% of the Moon is Illuminated
Nov 19
Waxing Crescent
Nov 20
First Quarter
Nov 28
Full
Dec 6
Last Quarter
Dec 13
New

Hourly Weather History & Observations

Time (EST) Temp. Windchill Dew Point Humidity Pressure Visibility Wind Dir Wind Speed Gust Speed Precip Events Conditions
12:52 AM 23.0 °F - 19.0 °F 85% 30.62 in 9.0 mi Calm Calm - N/A   Clear
1:52 AM 21.9 °F - 18.0 °F 85% 30.61 in 9.0 mi Calm Calm - N/A   Clear
2:52 AM 21.0 °F - 17.1 °F 85% 30.60 in 9.0 mi Calm Calm - N/A   Clear
3:52 AM 19.9 °F - 17.1 °F 89% 30.60 in 8.0 mi Calm Calm - N/A   Clear
4:52 AM 21.0 °F - 16.0 °F 81% 30.60 in 9.0 mi Calm Calm - N/A   Clear
5:52 AM 19.0 °F - 15.1 °F 85% 30.59 in 10.0 mi Calm Calm - N/A   Clear
6:52 AM 19.0 °F - 14.0 °F 81% 30.58 in 10.0 mi Calm Calm - N/A   Clear
7:52 AM 21.9 °F - 18.0 °F 85% 30.57 in 8.0 mi Calm Calm - N/A   Clear
8:52 AM 28.0 °F 24.2 °F 23.0 °F 81% 30.55 in 6.0 mi SE 3.5 mph - N/A   Haze
9:52 AM 34.0 °F - 25.0 °F 70% 30.53 in 10.0 mi Calm Calm - N/A   Clear
10:52 AM 39.9 °F - 24.1 °F 53% 30.50 in 10.0 mi Calm Calm - N/A   Clear
11:52 AM 45.0 °F 42.6 °F 15.1 °F 30% 30.45 in 10.0 mi ESE 4.6 mph - N/A   Clear
12:52 PM 48.9 °F - 10.0 °F 21% 30.42 in 10.0 mi Calm Calm - N/A   Clear
1:52 PM 48.9 °F - 8.1 °F 19% 30.38 in 10.0 mi Calm Calm - N/A   Clear
2:52 PM 50.0 °F - 12.0 °F 22% 30.37 in 10.0 mi Calm Calm - N/A   Clear
3:52 PM 43.0 °F 41.3 °F 19.0 °F 38% 30.37 in 10.0 mi WSW 3.5 mph - N/A   Clear
4:52 PM 34.0 °F - 21.0 °F 59% 30.37 in 5.0 mi Calm Calm - N/A   Haze
5:52 PM 30.0 °F - 21.9 °F 72% 30.38 in 10.0 mi Calm Calm - N/A   Clear
6:52 PM 28.0 °F - 21.9 °F 78% 30.37 in 10.0 mi Calm Calm - N/A   Clear
7:52 PM 27.0 °F - 21.0 °F 78% 30.37 in 10.0 mi Calm Calm - N/A   Clear
8:52 PM 25.0 °F - 19.9 °F 81% 30.35 in 10.0 mi Calm Calm - N/A   Clear
9:52 PM 24.1 °F - 19.0 °F 81% 30.33 in 10.0 mi Calm Calm - N/A   Clear
10:52 PM 23.0 °F - 18.0 °F 81% 30.31 in 10.0 mi Calm Calm - N/A   Clear
11:52 PM 23.0 °F - 18.0 °F 81% 30.30 in 10.0 mi Calm Calm - N/A   Clear